TimeCDT,TemperatureF,Dew PointF,Humidity,Sea Level PressureIn,VisibilityMPH,Wind Direction,Wind SpeedMPH,Gust SpeedMPH,PrecipitationIn,Events,Conditions,WindDirDegrees,DateUTC
12:15 AM,59.5,58.3,96,30.15,0.8,SSE,13.8,20.7,N/A,,Overcast,150,2013-10-14 05:15:00
12:35 AM,59.9,58.6,96,30.16,2.5,SSE,17.3,-,N/A,,Overcast,160,2013-10-14 05:35:00
12:55 AM,59.9,58.6,96,30.15,4.0,SSE,13.8,19.6,N/A,,Overcast,160,2013-10-14 05:55:00
1:15 AM,60.1,58.6,95,30.14,5.0,SSE,12.7,-,N/A,,Overcast,160,2013-10-14 06:15:00
1:35 AM,60.4,58.3,93,30.14,5.0,South,11.5,-,N/A,,Overcast,170,2013-10-14 06:35:00
2:15 AM,60.8,58.8,93,30.12,5.0,SSE,17.3,21.9,N/A,,Overcast,160,2013-10-14 07:15:00
2:55 AM,61.2,59.0,93,30.11,5.0,SSE,13.8,-,N/A,,Overcast,160,2013-10-14 07:55:00
3:15 AM,61.3,59.0,92,30.10,5.0,South,18.4,21.9,N/A,,Overcast,170,2013-10-14 08:15:00
3:35 AM,61.5,59.0,91,30.09,5.0,South,15.0,23.0,N/A,,Overcast,170,2013-10-14 08:35:00
3:55 AM,61.5,59.0,91,30.09,5.0,South,15.0,18.4,N/A,,Overcast,180,2013-10-14 08:55:00
4:15 AM,61.5,59.0,91,30.08,5.0,South,13.8,23.0,N/A,,Overcast,180,2013-10-14 09:15:00
4:35 AM,61.5,59.0,91,30.08,7.0,South,13.8,-,N/A,,Overcast,180,2013-10-14 09:35:00
4:55 AM,61.2,59.0,93,30.07,5.0,South,12.7,-,N/A,,Overcast,180,2013-10-14 09:55:00
5:15 AM,61.2,59.0,93,30.06,5.0,South,13.8,-,N/A,,Overcast,170,2013-10-14 10:15:00
5:35 AM,61.2,59.0,93,30.05,7.0,South,15.0,20.7,N/A,,Overcast,170,2013-10-14 10:35:00
5:55 AM,61.3,59.0,92,30.05,7.0,South,10.4,17.3,N/A,,Overcast,170,2013-10-14 10:55:00
6:15 AM,61.5,59.0,91,30.05,7.0,South,12.7,18.4,N/A,,Overcast,180,2013-10-14 11:15:00
6:35 AM,61.7,59.0,91,30.04,7.0,South,16.1,19.6,N/A,,Overcast,170,2013-10-14 11:35:00
6:55 AM,61.7,59.0,91,30.04,7.0,South,12.7,-,N/A,,Overcast,170,2013-10-14 11:55:00
7:15 AM,61.7,59.0,91,30.04,7.0,South,12.7,-,N/A,,Overcast,180,2013-10-14 12:15:00
7:35 AM,61.3,59.0,92,30.05,5.0,South,11.5,-,N/A,,Overcast,180,2013-10-14 12:35:00
7:55 AM,61.0,59.2,94,30.04,3.0,South,11.5,-,N/A,,Light Drizzle,170,2013-10-14 12:55:00
8:15 AM,61.2,59.4,94,30.03,3.0,South,12.7,18.4,N/A,,Drizzle,170,2013-10-14 13:15:00
8:35 AM,61.2,59.5,94,30.03,4.0,South,15.0,21.9,N/A,,Light Drizzle,170,2013-10-14 13:35:00
9:15 AM,61.7,59.9,94,30.02,10.0,South,16.1,23.0,N/A,,Overcast,180,2013-10-14 14:15:00
9:35 AM,61.9,59.9,93,30.03,10.0,South,16.1,20.7,N/A,,Overcast,180,2013-10-14 14:35:00
9:55 AM,61.9,59.9,93,30.03,3.0,South,15.0,20.7,N/A,,Overcast,190,2013-10-14 14:55:00
10:15 AM,62.6,60.4,93,30.01,10.0,South,16.1,21.9,N/A,,Overcast,190,2013-10-14 15:15:00
10:35 AM,62.8,60.3,91,30.01,10.0,South,15.0,23.0,N/A,,Overcast,190,2013-10-14 15:35:00
10:55 AM,63.3,60.3,90,30.00,10.0,SSW,15.0,23.0,N/A,,Overcast,200,2013-10-14 15:55:00
11:15 AM,63.5,60.1,89,30.00,10.0,SSW,16.1,20.7,N/A,,Overcast,200,2013-10-14 16:15:00
11:35 AM,63.9,60.1,87,30.00,10.0,SSW,16.1,21.9,N/A,,Overcast,200,2013-10-14 16:35:00
11:55 AM,66.6,61.2,83,29.99,10.0,SSW,19.6,26.5,N/A,,Overcast,200,2013-10-14 16:55:00
12:15 PM,68.5,61.5,78,29.98,10.0,SSW,21.9,27.6,N/A,,Overcast,210,2013-10-14 17:15:00
12:35 PM,67.6,61.2,80,29.96,10.0,SSW,20.7,26.5,N/A,,Overcast,210,2013-10-14 17:35:00
12:55 PM,69.4,61.3,75,29.94,10.0,SSW,18.4,27.6,N/A,,Mostly Cloudy,200,2013-10-14 17:55:00
1:15 PM,71.2,61.0,70,29.93,10.0,SW,24.2,28.8,N/A,,Mostly Cloudy,220,2013-10-14 18:15:00
1:35 PM,72.7,61.0,67,29.92,10.0,SW,20.7,27.6,N/A,,Scattered Clouds,220,2013-10-14 18:35:00
1:55 PM,73.2,60.4,64,29.91,10.0,SSW,19.6,25.3,N/A,,Mostly Cloudy,210,2013-10-14 18:55:00
2:15 PM,73.0,59.4,62,29.90,10.0,SW,20.7,26.5,N/A,,Mostly Cloudy,220,2013-10-14 19:15:00
2:35 PM,73.8,59.4,61,29.89,10.0,SW,19.6,24.2,N/A,,Mostly Cloudy,220,2013-10-14 19:35:00
2:55 PM,74.5,58.6,58,29.87,10.0,SSW,16.1,-,N/A,,Scattered Clouds,210,2013-10-14 19:55:00
3:15 PM,73.6,59.4,61,29.86,10.0,SSW,17.3,23.0,N/A,,Scattered Clouds,210,2013-10-14 20:15:00
3:35 PM,75.6,56.7,52,29.86,10.0,SW,17.3,23.0,N/A,,Clear,230,2013-10-14 20:35:00
3:55 PM,75.6,55.2,49,29.86,10.0,SW,19.6,24.2,N/A,,Clear,220,2013-10-14 20:55:00
4:15 PM,75.2,53.2,46,29.86,10.0,SW,17.3,26.5,N/A,,Clear,220,2013-10-14 21:15:00
4:35 PM,76.3,52.3,43,29.86,10.0,SW,21.9,25.3,N/A,,Scattered Clouds,220,2013-10-14 21:35:00
4:55 PM,75.6,52.5,45,29.86,10.0,SW,18.4,23.0,N/A,,Scattered Clouds,220,2013-10-14 21:55:00
5:15 PM,75.0,52.0,44,29.86,10.0,SW,17.3,21.9,N/A,,Scattered Clouds,220,2013-10-14 22:15:00
5:35 PM,74.8,50.4,42,29.86,10.0,SW,18.4,25.3,N/A,,Scattered Clouds,230,2013-10-14 22:35:00
5:55 PM,73.6,50.7,45,29.87,10.0,SW,16.1,-,N/A,,Clear,230,2013-10-14 22:55:00
6:15 PM,73.2,48.4,41,29.87,10.0,SW,13.8,-,N/A,,Scattered Clouds,220,2013-10-14 23:15:00
6:35 PM,72.3,48.0,42,29.87,10.0,SW,15.0,-,N/A,,Clear,230,2013-10-14 23:35:00
6:55 PM,71.1,48.2,44,29.88,10.0,SW,10.4,19.6,N/A,,Clear,230,2013-10-14 23:55:00
7:35 PM,65.1,50.2,58,29.90,10.0,SSW,5.8,-,N/A,,Clear,210,2013-10-15 00:35:00
7:55 PM,62.8,50.9,65,29.91,10.0,SW,8.1,-,N/A,,Clear,220,2013-10-15 00:55:00
8:15 PM,62.8,51.4,66,29.92,10.0,SW,9.2,-,N/A,,Clear,220,2013-10-15 01:15:00
8:35 PM,62.8,50.7,65,29.92,10.0,SW,9.2,-,N/A,,Clear,220,2013-10-15 01:35:00
8:55 PM,61.7,50.9,68,29.93,10.0,SW,9.2,-,N/A,,Clear,220,2013-10-15 01:55:00
9:15 PM,61.5,50.9,68,29.94,10.0,SW,9.2,-,N/A,,Clear,220,2013-10-15 02:15:00
9:35 PM,60.4,50.2,69,29.95,10.0,SW,10.4,-,N/A,,Clear,220,2013-10-15 02:35:00
9:55 PM,61.2,49.5,65,29.95,10.0,SW,8.1,-,N/A,,Clear,230,2013-10-15 02:55:00
10:15 PM,59.9,48.7,67,29.96,10.0,SW,8.1,-,N/A,,Clear,230,2013-10-15 03:15:00
10:35 PM,60.1,45.3,58,29.97,10.0,WSW,4.6,-,N/A,,Clear,250,2013-10-15 03:35:00
10:55 PM,61.3,40.3,46,30.00,10.0,North,21.9,28.8,N/A,,Clear,10,2013-10-15 03:55:00
11:15 PM,56.5,41.4,57,30.02,10.0,NNE,19.6,27.6,N/A,,Clear,20,2013-10-15 04:15:00
11:35 PM,55.2,41.5,60,30.03,10.0,NNE,16.1,21.9,N/A,,Clear,20,2013-10-15 04:35:00
11:55 PM,54.5,39.7,57,30.05,10.0,NNE,16.1,25.3,N/A,,Clear,20,2013-10-15 04:55:00